Time,TemperatureF,DewpointF,PressureIn,WindDirection,WindDirectionDegrees,WindSpeedMPH,WindSpeedGustMPH,Humidity,HourlyPrecipIn,Conditions,Clouds,dailyrainin,SoftwareType,DateUTC
2013-02-14 00:02:00,39.9,39.4,30.48,NE,55,0.0,0.0,98,0.00,RA,OVC,0.00,WeatherDisplay:10.37,2013-02-14 08:02:00,
2013-02-14 00:07:00,39.8,39.6,30.49,NE,55,0.0,0.0,99,0.00,RA,OVC,0.00,WeatherDisplay:10.37,2013-02-14 08:07:00,
2013-02-14 00:12:00,39.8,39.6,30.49,NE,55,0.0,0.0,99,0.00,,OVC,0.00,WeatherDisplay:10.37,2013-02-14 08:12:00,
2013-02-14 00:17:00,39.8,39.5,30.49,NE,55,0.0,0.0,99,0.00,,OVC,0.00,WeatherDisplay:10.37,2013-02-14 08:17:00,
2013-02-14 00:22:00,39.8,39.5,30.49,NE,55,0.0,0.0,99,0.00,,OVC,0.00,WeatherDisplay:10.37,2013-02-14 08:22:00,
2013-02-14 00:27:00,39.8,39.5,30.49,NE,55,0.0,0.0,99,0.00,,OVC,0.00,WeatherDisplay:10.37,2013-02-14 08:27:00,
2013-02-14 00:32:00,39.8,39.5,30.49,NE,55,0.0,0.0,99,0.00,,OVC,0.00,WeatherDisplay:10.37,2013-02-14 08:32:00,
2013-02-14 00:37:00,39.8,39.5,30.49,NE,55,0.0,0.0,99,0.00,,OVC,0.00,WeatherDisplay:10.37,2013-02-14 08:37:00,
2013-02-14 00:42:00,39.8,39.5,30.49,NE,55,0.0,0.0,99,0.00,,OVC,0.00,WeatherDisplay:10.37,2013-02-14 08:42:00,
2013-02-14 00:47:00,39.8,39.5,30.49,NE,55,0.0,0.0,99,0.00,,OVC,0.00,WeatherDisplay:10.37,2013-02-14 08:47:00,
2013-02-14 00:52:00,39.8,39.5,30.49,NE,55,0.0,0.0,99,0.00,,OVC,0.00,WeatherDisplay:10.37,2013-02-14 08:52:00,
2013-02-14 01:02:00,39.8,39.5,30.49,NE,55,0.0,0.0,99,0.00,,OVC,0.00,WeatherDisplay:10.37,2013-02-14 09:02:00,
2013-02-14 01:07:00,39.8,39.5,30.49,NE,55,0.0,0.0,99,0.00,,OVC,0.00,WeatherDisplay:10.37,2013-02-14 09:07:00,
2013-02-14 01:12:00,39.8,39.5,30.49,NE,55,0.0,0.0,99,0.00,,OVC,0.00,WeatherDisplay:10.37,2013-02-14 09:12:00,
2013-02-14 01:17:00,39.8,39.5,30.49,NE,55,0.0,0.0,99,0.00,,OVC,0.00,WeatherDisplay:10.37,2013-02-14 09:17:00,
2013-02-14 01:22:00,39.8,39.5,30.49,NE,55,0.0,0.0,99,0.00,,OVC,0.00,WeatherDisplay:10.37,2013-02-14 09:22:00,
2013-02-14 01:27:00,39.8,39.5,30.49,NE,55,0.0,0.0,99,0.00,,OVC,0.00,WeatherDisplay:10.37,2013-02-14 09:27:00,
2013-02-14 01:32:00,39.8,39.5,30.49,NE,55,0.0,0.0,99,0.00,,OVC,0.00,WeatherDisplay:10.37,2013-02-14 09:32:00,
2013-02-14 01:37:00,39.8,39.6,30.49,NE,55,0.0,0.0,99,0.00,,OVC,0.00,WeatherDisplay:10.37,2013-02-14 09:37:00,
2013-02-14 01:42:00,39.9,39.6,30.49,NE,55,0.0,0.0,99,0.00,,OVC,0.00,WeatherDisplay:10.37,2013-02-14 09:42:00,
2013-02-14 01:47:00,39.9,39.6,30.49,NE,55,0.0,0.0,99,0.00,,OVC,0.00,WeatherDisplay:10.37,2013-02-14 09:47:00,
2013-02-14 01:52:00,39.9,39.6,30.49,NE,55,0.0,0.0,99,0.00,,OVC,0.00,WeatherDisplay:10.37,2013-02-14 09:52:00,
2013-02-14 01:57:00,39.9,39.6,30.49,ENE,64,0.0,0.0,99,0.00,,OVC,0.00,WeatherDisplay:10.37,2013-02-14 09:57:00,
2013-02-14 02:02:00,39.9,39.6,30.49,East,89,1.0,0.0,99,0.00,,OVC,0.00,WeatherDisplay:10.37,2013-02-14 10:02:00,
2013-02-14 02:07:00,39.8,39.6,30.49,SSE,156,1.0,0.0,99,0.00,,OVC,0.00,WeatherDisplay:10.37,2013-02-14 10:07:00,
2013-02-14 02:12:00,39.8,39.5,30.49,SSE,159,0.0,0.0,99,0.00,,OVC,0.00,WeatherDisplay:10.37,2013-02-14 10:12:00,
2013-02-14 02:17:00,39.9,39.6,30.48,SE,144,0.0,0.0,99,0.01,RA,OVC,0.01,WeatherDisplay:10.37,2013-02-14 10:17:00,
2013-02-14 02:22:00,39.9,39.6,30.49,ESE,118,0.0,0.0,99,0.01,RA,OVC,0.01,WeatherDisplay:10.37,2013-02-14 10:22:00,
2013-02-14 02:27:00,39.9,39.6,30.49,ESE,117,0.0,0.0,99,0.00,,OVC,0.01,WeatherDisplay:10.37,2013-02-14 10:27:00,
2013-02-14 02:32:00,39.9,39.6,30.49,SE,131,0.0,0.0,99,0.00,,OVC,0.01,WeatherDisplay:10.37,2013-02-14 10:32:00,
2013-02-14 02:37:00,39.9,39.7,30.49,SSE,150,0.0,0.0,99,0.00,,OVC,0.01,WeatherDisplay:10.37,2013-02-14 10:37:00,
2013-02-14 02:42:00,40.0,39.7,30.49,ESE,121,0.0,0.0,99,0.00,,OVC,0.01,WeatherDisplay:10.37,2013-02-14 10:42:00,
2013-02-14 02:47:00,40.0,39.7,30.49,ESE,116,0.0,0.0,99,0.00,,OVC,0.01,WeatherDisplay:10.37,2013-02-14 10:47:00,
2013-02-14 02:52:00,40.0,39.7,30.49,ESE,109,0.0,0.0,99,0.00,,OVC,0.01,WeatherDisplay:10.37,2013-02-14 10:52:00,
2013-02-14 02:57:00,40.0,39.7,30.49,ESE,112,0.0,0.0,99,0.00,,OVC,0.01,WeatherDisplay:10.37,2013-02-14 10:57:00,
2013-02-14 03:02:00,40.0,39.7,30.49,SE,136,0.0,0.0,99,0.00,,OVC,0.01,WeatherDisplay:10.37,2013-02-14 11:02:00,
2013-02-14 03:07:00,40.0,39.7,30.49,SSE,156,0.0,0.0,99,0.00,,OVC,0.01,WeatherDisplay:10.37,2013-02-14 11:07:00,
2013-02-14 03:12:00,40.0,39.7,30.49,SSE,156,0.0,0.0,99,0.01,RA,OVC,0.02,WeatherDisplay:10.37,2013-02-14 11:12:00,
2013-02-14 03:17:00,40.0,39.7,30.49,SSE,156,0.0,0.0,99,0.01,RA,OVC,0.02,WeatherDisplay:10.37,2013-02-14 11:17:00,
2013-02-14 03:22:00,40.0,39.7,30.49,SSE,156,0.0,0.0,99,0.00,,OVC,0.02,WeatherDisplay:10.37,2013-02-14 11:22:00,
2013-02-14 03:27:00,40.0,39.7,30.48,SSE,153,0.0,0.0,99,0.00,,OVC,0.02,WeatherDisplay:10.37,2013-02-14 11:27:00,
2013-02-14 03:32:00,40.0,39.7,30.48,SSE,152,0.0,0.0,99,0.00,,OVC,0.02,WeatherDisplay:10.37,2013-02-14 11:32:00,
2013-02-14 03:37:00,40.0,39.7,30.49,SSE,156,0.0,0.0,99,0.00,,OVC,0.02,WeatherDisplay:10.37,2013-02-14 11:37:00,
2013-02-14 03:42:00,40.0,39.7,30.48,SSE,157,0.0,0.0,99,0.00,,OVC,0.02,WeatherDisplay:10.37,2013-02-14 11:42:00,
2013-02-14 03:52:00,40.0,39.7,30.49,South,171,0.0,0.0,99,0.00,,OVC,0.02,WeatherDisplay:10.37,2013-02-14 11:52:00,
2013-02-14 03:57:00,40.1,39.8,30.49,SSE,160,0.0,0.0,99,0.00,,OVC,0.02,WeatherDisplay:10.37,2013-02-14 11:57:00,
2013-02-14 04:02:00,40.1,39.8,30.48,SE,143,1.0,0.0,99,0.00,,OVC,0.02,WeatherDisplay:10.37,2013-02-14 12:02:00,
2013-02-14 04:07:00,40.1,39.8,30.48,SSE,147,0.0,0.0,99,0.00,,OVC,0.02,WeatherDisplay:10.37,2013-02-14 12:07:00,
2013-02-14 04:12:00,40.1,39.8,30.48,SSE,164,0.0,0.0,99,0.00,,OVC,0.02,WeatherDisplay:10.37,2013-02-14 12:12:00,
2013-02-14 04:17:00,40.1,39.8,30.49,SSE,149,0.0,0.0,99,0.00,,OVC,0.02,WeatherDisplay:10.37,2013-02-14 12:17:00,
2013-02-14 04:22:00,40.1,39.8,30.49,SE,142,0.0,0.0,99,0.00,,OVC,0.02,WeatherDisplay:10.37,2013-02-14 12:22:00,
2013-02-14 04:27:00,40.1,39.8,30.49,SE,140,0.0,0.0,99,0.00,,OVC,0.02,WeatherDisplay:10.37,2013-02-14 12:27:00,
2013-02-14 04:32:00,40.1,39.8,30.49,SE,140,0.0,0.0,99,0.01,RA,OVC,0.03,WeatherDisplay:10.37,2013-02-14 12:32:00,
2013-02-14 04:37:00,40.1,39.8,30.49,SE,140,0.0,0.0,99,0.01,RA,OVC,0.03,WeatherDisplay:10.37,2013-02-14 12:37:00,
2013-02-14 04:42:00,40.1,39.8,30.49,SSE,149,0.0,0.0,99,0.00,,OVC,0.03,WeatherDisplay:10.37,2013-02-14 12:42:00,
2013-02-14 04:47:00,40.0,39.7,30.49,SSE,150,1.0,0.0,99,0.00,,OVC,0.03,WeatherDisplay:10.37,2013-02-14 12:47:00,
2013-02-14 04:52:00,40.0,39.7,30.49,SSE,161,0.0,0.0,99,0.00,,OVC,0.03,WeatherDisplay:10.37,2013-02-14 12:52:00,
2013-02-14 04:57:00,40.0,39.7,30.50,SSE,168,0.0,0.0,99,0.01,RA,OVC,0.04,WeatherDisplay:10.37,2013-02-14 12:57:00,
2013-02-14 05:02:00,40.0,39.7,30.50,SSE,165,2.0,0.0,99,0.01,RA,OVC,0.04,WeatherDisplay:10.37,2013-02-14 13:02:00,
2013-02-14 05:07:00,40.0,39.7,30.50,SSE,163,0.0,0.0,99,0.00,,OVC,0.04,WeatherDisplay:10.37,2013-02-14 13:07:00,
2013-02-14 05:12:00,40.0,39.8,30.50,SSE,155,1.0,0.0,99,0.00,,OVC,0.04,WeatherDisplay:10.37,2013-02-14 13:12:00,
2013-02-14 05:17:00,40.1,39.8,30.50,SSE,155,0.0,0.0,99,0.00,,OVC,0.04,WeatherDisplay:10.37,2013-02-14 13:17:00,
2013-02-14 05:22:00,40.0,39.8,30.51,SSE,160,0.0,0.0,99,0.00,,OVC,0.04,WeatherDisplay:10.37,2013-02-14 13:22:00,
2013-02-14 05:27:00,40.1,39.8,30.50,SSE,155,1.0,0.0,99,0.00,,OVC,0.04,WeatherDisplay:10.37,2013-02-14 13:27:00,
2013-02-14 05:32:00,40.0,39.8,30.51,SE,141,0.0,0.0,99,0.00,,OVC,0.04,WeatherDisplay:10.37,2013-02-14 13:32:00,
2013-02-14 05:37:00,40.1,39.8,30.51,SE,141,0.0,0.0,99,0.00,,OVC,0.04,WeatherDisplay:10.37,2013-02-14 13:37:00,
2013-02-14 05:42:00,40.0,39.8,30.51,SE,141,0.0,0.0,99,0.01,RA,OVC,0.05,WeatherDisplay:10.37,2013-02-14 13:42:00,
2013-02-14 05:47:00,40.0,39.7,30.51,SE,141,0.0,0.0,99,0.01,RA,OVC,0.05,WeatherDisplay:10.37,2013-02-14 13:47:00,
2013-02-14 05:52:00,40.0,39.7,30.51,SE,141,0.0,0.0,99,0.00,,OVC,0.05,WeatherDisplay:10.37,2013-02-14 13:52:00,
2013-02-14 05:57:00,40.0,39.7,30.51,SE,141,0.0,0.0,99,0.00,,OVC,0.05,WeatherDisplay:10.37,2013-02-14 13:57:00,
2013-02-14 06:02:00,40.0,39.7,30.51,SE,141,0.0,0.0,99,0.00,,OVC,0.05,WeatherDisplay:10.37,2013-02-14 14:02:00,
2013-02-14 06:07:00,40.0,39.7,30.51,SE,141,0.0,0.0,99,0.01,RA,OVC,0.06,WeatherDisplay:10.37,2013-02-14 14:07:00,
2013-02-14 06:12:00,40.0,39.7,30.51,SE,141,0.0,0.0,99,0.01,RA,OVC,0.06,WeatherDisplay:10.37,2013-02-14 14:12:00,
2013-02-14 06:17:00,40.0,39.7,30.51,SE,141,0.0,0.0,99,0.00,,OVC,0.06,WeatherDisplay:10.37,2013-02-14 14:17:00,
2013-02-14 06:22:00,40.0,39.7,30.51,SE,141,0.0,0.0,99,0.00,,OVC,0.06,WeatherDisplay:10.37,2013-02-14 14:22:00,
2013-02-14 06:27:00,39.9,39.6,30.51,SE,141,0.0,0.0,99,0.00,,OVC,0.06,WeatherDisplay:10.37,2013-02-14 14:27:00,
2013-02-14 06:32:00,39.9,39.6,30.51,SE,141,0.0,0.0,99,0.00,,OVC,0.06,WeatherDisplay:10.37,2013-02-14 14:32:00,
2013-02-14 06:37:00,39.8,39.6,30.51,SE,141,0.0,0.0,99,0.00,,OVC,0.06,WeatherDisplay:10.37,2013-02-14 14:37:00,
2013-02-14 06:42:00,39.8,39.5,30.51,SE,141,0.0,0.0,99,0.00,,OVC,0.06,WeatherDisplay:10.37,2013-02-14 14:42:00,
2013-02-14 06:47:00,39.8,39.5,30.51,SE,141,0.0,0.0,99,0.00,,OVC,0.06,WeatherDisplay:10.37,2013-02-14 14:47:00,
2013-02-14 06:52:00,39.8,39.5,30.51,SE,140,0.0,0.0,99,0.00,,OVC,0.06,WeatherDisplay:10.37,2013-02-14 14:52:00,
2013-02-14 06:57:00,39.8,39.5,30.51,SE,130,0.0,0.0,99,0.01,RA,OVC,0.07,WeatherDisplay:10.37,2013-02-14 14:57:00,
2013-02-14 07:02:00,39.7,39.5,30.51,ESE,104,1.0,0.0,99,0.01,RA,OVC,0.07,WeatherDisplay:10.37,2013-02-14 15:02:00,
2013-02-14 07:07:00,39.7,39.4,30.51,East,100,0.0,0.0,99,0.00,CLR,OVC,0.07,WeatherDisplay:10.37,2013-02-14 15:07:00,
2013-02-14 07:12:00,39.7,39.4,30.51,East,100,0.0,0.0,99,0.00,CLR,OVC,0.07,WeatherDisplay:10.37,2013-02-14 15:12:00,
2013-02-14 07:17:00,39.7,39.4,30.52,East,100,0.0,0.0,99,0.00,CLR,OVC,0.07,WeatherDisplay:10.37,2013-02-14 15:17:00,
2013-02-14 07:22:00,39.7,39.4,30.52,East,100,0.0,0.0,99,0.00,CLR,OVC,0.07,WeatherDisplay:10.37,2013-02-14 15:22:00,
2013-02-14 07:27:00,39.7,39.4,30.52,East,100,0.0,0.0,99,0.00,CLR,OVC,0.07,WeatherDisplay:10.37,2013-02-14 15:27:00,
2013-02-14 07:32:00,39.7,39.4,30.52,East,100,0.0,0.0,99,0.00,CLR,OVC,0.07,WeatherDisplay:10.37,2013-02-14 15:32:00,
2013-02-14 07:37:00,39.7,39.4,30.52,East,100,0.0,0.0,99,0.01,RA,OVC,0.08,WeatherDisplay:10.37,2013-02-14 15:37:00,
2013-02-14 07:42:00,39.7,39.4,30.52,East,100,0.0,0.0,99,0.01,RA,OVC,0.08,WeatherDisplay:10.37,2013-02-14 15:42:00,
2013-02-14 07:47:00,39.7,39.4,30.52,East,100,0.0,0.0,99,0.00,CLR,OVC,0.08,WeatherDisplay:10.37,2013-02-14 15:47:00,
2013-02-14 07:52:00,39.7,39.4,30.52,East,100,0.0,0.0,99,0.00,CLR,OVC,0.08,WeatherDisplay:10.37,2013-02-14 15:52:00,
2013-02-14 07:57:00,39.7,39.4,30.52,East,100,1.0,0.0,99,0.00,CLR,OVC,0.08,WeatherDisplay:10.37,2013-02-14 15:57:00,
2013-02-14 08:02:00,39.8,39.5,30.53,East,99,0.0,0.0,99,0.00,CLR,OVC,0.08,WeatherDisplay:10.37,2013-02-14 16:02:00,
2013-02-14 08:07:00,39.8,39.5,30.53,East,98,0.0,0.0,99,0.01,RA,OVC,0.09,WeatherDisplay:10.37,2013-02-14 16:07:00,
2013-02-14 08:12:00,39.8,39.5,30.53,East,98,0.0,0.0,99,0.01,RA,OVC,0.09,WeatherDisplay:10.37,2013-02-14 16:12:00,
2013-02-14 08:17:00,39.9,39.6,30.53,East,98,0.0,0.0,99,0.00,CLR,OVC,0.09,WeatherDisplay:10.37,2013-02-14 16:17:00,
2013-02-14 08:22:00,39.9,39.6,30.53,East,98,0.0,0.0,99,0.00,CLR,OVC,0.09,WeatherDisplay:10.37,2013-02-14 16:22:00,
2013-02-14 08:27:00,40.0,39.7,30.54,East,98,0.0,0.0,99,0.00,CLR,OVC,0.09,WeatherDisplay:10.37,2013-02-14 16:27:00,
2013-02-14 08:32:00,40.0,39.7,30.54,East,98,0.0,0.0,99,0.00,CLR,OVC,0.09,WeatherDisplay:10.37,2013-02-14 16:32:00,
2013-02-14 08:37:00,40.1,39.8,30.54,East,98,0.0,0.0,99,0.01,RA,OVC,0.10,WeatherDisplay:10.37,2013-02-14 16:37:00,
2013-02-14 08:42:00,40.1,39.9,30.54,East,98,0.0,0.0,99,0.01,RA,OVC,0.10,WeatherDisplay:10.37,2013-02-14 16:42:00,
2013-02-14 08:47:00,40.2,39.9,30.54,East,98,0.0,0.0,99,0.00,CLR,OVC,0.10,WeatherDisplay:10.37,2013-02-14 16:47:00,
2013-02-14 08:52:00,40.3,40.1,30.54,East,98,0.0,0.0,99,0.00,CLR,OVC,0.10,WeatherDisplay:10.37,2013-02-14 16:52:00,
2013-02-14 08:57:00,40.5,40.2,30.54,East,98,0.0,0.0,99,0.00,CLR,OVC,0.10,WeatherDisplay:10.37,2013-02-14 16:57:00,
2013-02-14 09:02:00,40.6,40.4,30.54,East,98,0.0,0.0,99,0.00,CLR,OVC,0.10,WeatherDisplay:10.37,2013-02-14 17:02:00,
2013-02-14 09:07:00,40.8,40.5,30.54,ESE,103,0.0,0.0,99,0.00,CLR,OVC,0.10,WeatherDisplay:10.37,2013-02-14 17:07:00,
2013-02-14 09:12:00,41.0,40.7,30.54,ESE,120,0.0,0.0,99,0.00,CLR,OVC,0.10,WeatherDisplay:10.37,2013-02-14 17:12:00,
2013-02-14 09:17:00,41.2,40.9,30.53,SE,135,0.0,0.0,99,0.00,CLR,OVC,0.10,WeatherDisplay:10.37,2013-02-14 17:17:00,
2013-02-14 09:22:00,41.4,41.1,30.53,SE,133,0.0,0.0,99,0.00,CLR,OVC,0.10,WeatherDisplay:10.37,2013-02-14 17:22:00,
2013-02-14 09:27:00,41.6,41.3,30.53,ESE,122,0.0,0.0,99,0.00,CLR,OVC,0.10,WeatherDisplay:10.37,2013-02-14 17:27:00,
2013-02-14 09:32:00,41.8,41.5,30.54,East,90,1.0,0.0,99,0.00,CLR,OVC,0.10,WeatherDisplay:10.37,2013-02-14 17:32:00,
2013-02-14 09:37:00,41.9,41.6,30.53,East,81,1.0,0.0,99,0.00,CLR,OVC,0.10,WeatherDisplay:10.37,2013-02-14 17:37:00,
2013-02-14 09:42:00,42.1,41.8,30.53,East,81,0.0,0.0,99,0.00,CLR,OVC,0.10,WeatherDisplay:10.37,2013-02-14 17:42:00,
2013-02-14 09:47:00,42.4,42.1,30.53,East,81,0.0,0.0,99,0.00,CLR,OVC,0.10,WeatherDisplay:10.37,2013-02-14 17:47:00,
2013-02-14 09:52:00,42.7,42.4,30.53,East,79,0.0,0.0,99,0.00,CLR,OVC,0.10,WeatherDisplay:10.37,2013-02-14 17:52:00,
2013-02-14 09:57:00,43.0,42.8,30.53,East,85,0.0,0.0,99,0.00,CLR,OVC,0.10,WeatherDisplay:10.37,2013-02-14 17:57:00,
2013-02-14 10:02:00,43.3,43.0,30.53,East,87,0.0,0.0,99,0.00,CLR,OVC,0.10,WeatherDisplay:10.37,2013-02-14 18:02:00,
2013-02-14 10:07:00,43.4,43.1,30.53,East,81,0.0,0.0,99,0.00,CLR,OVC,0.10,WeatherDisplay:10.37,2013-02-14 18:07:00,
2013-02-14 10:12:00,43.5,43.2,30.53,East,79,0.0,0.0,99,0.00,CLR,OVC,0.10,WeatherDisplay:10.37,2013-02-14 18:12:00,
2013-02-14 10:17:00,43.5,43.2,30.53,ENE,75,0.0,0.0,99,0.00,CLR,OVC,0.10,WeatherDisplay:10.37,2013-02-14 18:17:00,
2013-02-14 10:22:00,43.6,43.3,30.53,East,79,0.0,0.0,99,0.00,CLR,OVC,0.10,WeatherDisplay:10.37,2013-02-14 18:22:00,
2013-02-14 10:27:00,43.7,43.4,30.53,East,84,0.0,0.0,99,0.00,CLR,OVC,0.10,WeatherDisplay:10.37,2013-02-14 18:27:00,
2013-02-14 10:32:00,43.8,43.5,30.54,East,84,0.0,0.0,99,0.00,CLR,OVC,0.10,WeatherDisplay:10.37,2013-02-14 18:32:00,
2013-02-14 10:37:00,43.9,43.6,30.54,East,82,0.0,0.0,99,0.00,CLR,OVC,0.10,WeatherDisplay:10.37,2013-02-14 18:37:00,
2013-02-14 10:42:00,43.9,43.6,30.54,East,80,0.0,0.0,99,0.00,CLR,OVC,0.10,WeatherDisplay:10.37,2013-02-14 18:42:00,
2013-02-14 10:47:00,43.9,43.6,30.54,ENE,78,0.0,0.0,99,0.00,CLR,OVC,0.10,WeatherDisplay:10.37,2013-02-14 18:47:00,
2013-02-14 10:52:00,44.0,43.7,30.54,ENE,78,0.0,0.0,99,0.00,CLR,OVC,0.10,WeatherDisplay:10.37,2013-02-14 18:52:00,
2013-02-14 10:57:00,44.0,43.7,30.54,ENE,78,0.0,0.0,99,0.00,CLR,OVC,0.10,WeatherDisplay:10.37,2013-02-14 18:57:00,
2013-02-14 11:02:00,44.1,43.8,30.54,East,79,1.0,0.0,99,0.00,CLR,OVC,0.10,WeatherDisplay:10.37,2013-02-14 19:02:00,
2013-02-14 11:07:00,44.2,43.9,30.54,East,80,0.0,0.0,99,0.00,CLR,OVC,0.10,WeatherDisplay:10.37,2013-02-14 19:07:00,
2013-02-14 11:12:00,44.3,44.0,30.55,East,81,0.0,0.0,99,0.00,CLR,OVC,0.10,WeatherDisplay:10.37,2013-02-14 19:12:00,
2013-02-14 11:17:00,44.4,44.1,30.55,East,80,0.0,0.0,99,0.00,CLR,OVC,0.10,WeatherDisplay:10.37,2013-02-14 19:17:00,
2013-02-14 11:22:00,44.5,44.2,30.54,East,83,0.0,0.0,99,0.00,CLR,OVC,0.10,WeatherDisplay:10.37,2013-02-14 19:22:00,
2013-02-14 11:27:00,44.6,44.3,30.54,East,94,0.0,0.0,99,0.00,CLR,OVC,0.10,WeatherDisplay:10.37,2013-02-14 19:27:00,
2013-02-14 11:32:00,44.6,44.3,30.54,SSE,153,0.0,0.0,99,0.00,CLR,OVC,0.10,WeatherDisplay:10.37,2013-02-14 19:32:00,
2013-02-14 11:37:00,44.9,44.6,30.54,SSE,152,0.0,0.0,99,0.00,CLR,OVC,0.10,WeatherDisplay:10.37,2013-02-14 19:37:00,
2013-02-14 11:42:00,45.3,45.1,30.53,SE,144,0.0,0.0,99,0.00,CLR,OVC,0.10,WeatherDisplay:10.37,2013-02-14 19:42:00,
2013-02-14 11:47:00,45.6,45.3,30.53,SE,130,1.0,0.0,99,0.00,CLR,OVC,0.10,WeatherDisplay:10.37,2013-02-14 19:47:00,
2013-02-14 11:52:00,45.9,45.7,30.53,SE,125,0.0,0.0,99,0.00,CLR,OVC,0.10,WeatherDisplay:10.37,2013-02-14 19:52:00,
2013-02-14 11:57:00,46.3,46.0,30.54,SE,128,0.0,0.0,99,0.00,CLR,OVC,0.10,WeatherDisplay:10.37,2013-02-14 19:57:00,
2013-02-14 12:02:00,46.3,46.0,30.54,SE,145,0.0,0.0,99,0.00,CLR,OVC,0.10,WeatherDisplay:10.37,2013-02-14 20:02:00,
2013-02-14 12:07:00,46.3,46.0,30.54,ESE,118,0.0,0.0,99,0.00,CLR,OVC,0.10,WeatherDisplay:10.37,2013-02-14 20:07:00,
2013-02-14 12:12:00,46.4,46.1,30.54,SE,128,0.0,0.0,99,0.00,CLR,OVC,0.10,WeatherDisplay:10.37,2013-02-14 20:12:00,
2013-02-14 12:17:00,46.4,45.9,30.54,SSE,161,0.0,0.0,98,0.00,CLR,OVC,0.10,WeatherDisplay:10.37,2013-02-14 20:17:00,
2013-02-14 12:22:00,46.3,45.8,30.55,SSE,150,1.0,0.0,98,0.00,CLR,OVC,0.10,WeatherDisplay:10.37,2013-02-14 20:22:00,
2013-02-14 12:27:00,46.4,45.9,30.54,SSE,155,0.0,0.0,98,0.00,CLR,OVC,0.10,WeatherDisplay:10.37,2013-02-14 20:27:00,
2013-02-14 12:32:00,46.5,46.0,30.54,SSE,160,0.0,0.0,98,0.00,CLR,OVC,0.10,WeatherDisplay:10.37,2013-02-14 20:32:00,
2013-02-14 12:37:00,46.8,45.9,30.54,SSE,148,0.0,0.0,97,0.00,CLR,OVC,0.10,WeatherDisplay:10.37,2013-02-14 20:37:00,
2013-02-14 12:42:00,47.0,46.2,30.54,SE,125,0.0,0.0,97,0.00,CLR,OVC,0.10,WeatherDisplay:10.37,2013-02-14 20:42:00,
2013-02-14 12:47:00,47.1,46.3,30.54,SE,143,0.0,0.0,97,0.00,CLR,OVC,0.10,WeatherDisplay:10.37,2013-02-14 20:47:00,
2013-02-14 12:52:00,47.2,46.1,30.53,SSE,159,0.0,0.0,96,0.00,CLR,OVC,0.10,WeatherDisplay:10.37,2013-02-14 20:52:00,
2013-02-14 12:57:00,47.1,45.8,30.54,SSE,152,0.0,0.0,95,0.00,CLR,OVC,0.10,WeatherDisplay:10.37,2013-02-14 20:57:00,
2013-02-14 13:02:00,47.1,45.7,30.54,SE,143,0.0,0.0,95,0.00,CLR,OVC,0.10,WeatherDisplay:10.37,2013-02-14 21:02:00,
2013-02-14 13:07:00,47.1,45.7,30.54,SE,137,1.0,0.0,95,0.00,CLR,OVC,0.10,WeatherDisplay:10.37,2013-02-14 21:07:00,
2013-02-14 13:12:00,47.1,45.5,30.54,SE,130,0.0,0.0,94,0.00,CLR,OVC,0.10,WeatherDisplay:10.37,2013-02-14 21:12:00,
2013-02-14 13:17:00,47.2,45.8,30.53,SE,131,0.0,0.0,95,0.00,CLR,OVC,0.10,WeatherDisplay:10.37,2013-02-14 21:17:00,
2013-02-14 13:22:00,47.4,46.0,30.53,SE,133,0.0,0.0,95,0.00,CLR,OVC,0.10,WeatherDisplay:10.37,2013-02-14 21:22:00,
2013-02-14 13:27:00,47.6,46.5,30.53,East,90,1.0,0.0,96,0.00,CLR,OVC,0.10,WeatherDisplay:10.37,2013-02-14 21:27:00,
2013-02-14 13:32:00,47.8,46.4,30.53,ENE,78,0.0,0.0,95,0.00,CLR,OVC,0.10,WeatherDisplay:10.37,2013-02-14 21:32:00,
2013-02-14 13:37:00,47.8,46.2,30.53,East,80,0.0,0.0,94,0.00,CLR,OVC,0.10,WeatherDisplay:10.37,2013-02-14 21:37:00,
2013-02-14 13:42:00,47.8,45.9,30.53,ESE,104,0.0,0.0,93,0.00,CLR,OVC,0.10,WeatherDisplay:10.37,2013-02-14 21:42:00,
2013-02-14 13:47:00,47.9,46.3,30.53,SE,132,0.0,0.0,94,0.00,CLR,OVC,0.10,WeatherDisplay:10.37,2013-02-14 21:47:00,
2013-02-14 13:52:00,48.0,46.6,30.53,SE,144,1.0,0.0,95,0.00,CLR,OVC,0.10,WeatherDisplay:10.37,2013-02-14 21:52:00,
2013-02-14 13:57:00,48.0,46.3,30.53,SE,136,0.0,0.0,94,0.00,CLR,OVC,0.10,WeatherDisplay:10.37,2013-02-14 21:57:00,
2013-02-14 14:02:00,48.1,46.7,30.53,SE,139,0.0,0.0,95,0.00,CLR,OVC,0.10,WeatherDisplay:10.37,2013-02-14 22:02:00,
2013-02-14 14:07:00,48.1,46.2,30.53,SSE,162,1.0,0.0,93,0.00,CLR,OVC,0.10,WeatherDisplay:10.37,2013-02-14 22:07:00,
2013-02-14 14:12:00,47.9,45.7,30.53,SSE,161,1.0,0.0,92,0.00,CLR,OVC,0.10,WeatherDisplay:10.37,2013-02-14 22:12:00,
2013-02-14 14:17:00,47.7,45.5,30.54,SSE,154,1.0,0.0,92,0.00,CLR,OVC,0.10,WeatherDisplay:10.37,2013-02-14 22:17:00,
2013-02-14 14:22:00,47.5,45.0,30.54,SE,141,0.0,0.0,91,0.00,CLR,OVC,0.10,WeatherDisplay:10.37,2013-02-14 22:22:00,
2013-02-14 14:27:00,47.2,44.7,30.53,SSE,154,0.0,0.0,91,0.00,CLR,OVC,0.10,WeatherDisplay:10.37,2013-02-14 22:27:00,
2013-02-14 14:32:00,47.0,44.8,30.53,South,183,0.0,0.0,92,0.00,CLR,OVC,0.10,WeatherDisplay:10.37,2013-02-14 22:32:00,
2013-02-14 14:37:00,46.8,44.9,30.53,South,169,1.0,0.0,93,0.00,CLR,OVC,0.10,WeatherDisplay:10.37,2013-02-14 22:37:00,
2013-02-14 14:42:00,46.8,44.9,30.53,SSE,162,0.0,0.0,93,0.00,CLR,OVC,0.10,WeatherDisplay:10.37,2013-02-14 22:42:00,
2013-02-14 14:47:00,46.9,45.3,30.53,SSE,159,0.0,0.0,94,0.00,CLR,OVC,0.10,WeatherDisplay:10.37,2013-02-14 22:47:00,
2013-02-14 14:52:00,46.8,44.9,30.53,SSE,162,0.0,0.0,93,0.00,CLR,OVC,0.10,WeatherDisplay:10.37,2013-02-14 22:52:00,
2013-02-14 14:57:00,46.8,45.2,30.53,SSE,167,0.0,0.0,94,0.00,CLR,OVC,0.10,WeatherDisplay:10.37,2013-02-14 22:57:00,
2013-02-14 15:02:00,46.8,45.2,30.53,SSE,166,0.0,0.0,94,0.00,CLR,OVC,0.10,WeatherDisplay:10.37,2013-02-14 23:02:00,
2013-02-14 15:07:00,46.9,45.2,30.53,SSE,167,1.0,0.0,94,0.00,CLR,OVC,0.10,WeatherDisplay:10.37,2013-02-14 23:07:00,
2013-02-14 15:12:00,46.8,44.9,30.53,South,171,0.0,0.0,93,0.00,CLR,OVC,0.10,WeatherDisplay:10.37,2013-02-14 23:12:00,
2013-02-14 15:17:00,46.8,45.2,30.53,South,172,0.0,0.0,94,0.00,CLR,OVC,0.10,WeatherDisplay:10.37,2013-02-14 23:17:00,
2013-02-14 15:22:00,46.9,45.3,30.54,South,172,0.0,0.0,94,0.00,CLR,OVC,0.10,WeatherDisplay:10.37,2013-02-14 23:22:00,
2013-02-14 15:27:00,46.9,45.3,30.54,South,172,0.0,0.0,94,0.00,CLR,OVC,0.10,WeatherDisplay:10.37,2013-02-14 23:27:00,
2013-02-14 15:32:00,46.9,45.3,30.54,South,171,0.0,0.0,94,0.00,CLR,OVC,0.10,WeatherDisplay:10.37,2013-02-14 23:32:00,
2013-02-14 15:37:00,46.8,44.9,30.53,South,171,0.0,0.0,93,0.00,CLR,OVC,0.10,WeatherDisplay:10.37,2013-02-14 23:37:00,
2013-02-14 15:42:00,46.8,44.9,30.53,South,171,0.0,0.0,93,0.00,CLR,OVC,0.10,WeatherDisplay:10.37,2013-02-14 23:42:00,
2013-02-14 15:47:00,46.7,44.8,30.53,South,171,0.0,0.0,93,0.00,CLR,OVC,0.10,WeatherDisplay:10.37,2013-02-14 23:47:00,
2013-02-14 15:52:00,46.7,44.8,30.53,South,171,0.0,0.0,93,0.00,CLR,OVC,0.10,WeatherDisplay:10.37,2013-02-14 23:52:00,
2013-02-14 15:57:00,46.7,45.1,30.53,South,171,0.0,0.0,94,0.00,CLR,OVC,0.10,WeatherDisplay:10.37,2013-02-14 23:57:00,
2013-02-14 16:02:00,46.7,45.1,30.53,South,171,0.0,0.0,94,0.00,CLR,OVC,0.10,WeatherDisplay:10.37,2013-02-15 00:02:00,
2013-02-14 16:07:00,46.7,45.1,30.53,South,170,0.0,0.0,94,0.00,CLR,OVC,0.10,WeatherDisplay:10.37,2013-02-15 00:07:00,
2013-02-14 16:12:00,46.7,45.3,30.53,SSE,150,0.0,0.0,95,0.00,CLR,OVC,0.10,WeatherDisplay:10.37,2013-02-15 00:12:00,
2013-02-14 16:17:00,46.7,45.4,30.53,SE,135,0.0,0.0,95,0.00,CLR,OVC,0.10,WeatherDisplay:10.37,2013-02-15 00:17:00,
2013-02-14 16:22:00,46.8,45.4,30.53,SE,134,0.0,0.0,95,0.00,CLR,OVC,0.10,WeatherDisplay:10.37,2013-02-15 00:22:00,
2013-02-14 16:27:00,46.7,45.3,30.53,SE,134,0.0,0.0,95,0.00,CLR,OVC,0.10,WeatherDisplay:10.37,2013-02-15 00:27:00,
2013-02-14 16:32:00,46.7,45.3,30.53,SE,134,0.0,0.0,95,0.00,CLR,OVC,0.10,WeatherDisplay:10.37,2013-02-15 00:32:00,
2013-02-14 16:37:00,46.7,45.1,30.53,SE,134,0.0,0.0,94,0.00,CLR,OVC,0.10,WeatherDisplay:10.37,2013-02-15 00:37:00,
2013-02-14 16:42:00,46.7,45.3,30.53,SE,134,0.0,0.0,95,0.00,CLR,OVC,0.10,WeatherDisplay:10.37,2013-02-15 00:42:00,
2013-02-14 16:47:00,46.7,45.3,30.53,SE,134,0.0,0.0,95,0.00,CLR,OVC,0.10,WeatherDisplay:10.37,2013-02-15 00:47:00,
2013-02-14 16:52:00,46.6,45.2,30.53,SE,134,0.0,0.0,95,0.00,CLR,OVC,0.10,WeatherDisplay:10.37,2013-02-15 00:52:00,
2013-02-14 16:57:00,46.5,45.1,30.53,SE,134,0.0,0.0,95,0.00,CLR,OVC,0.10,WeatherDisplay:10.37,2013-02-15 00:57:00,
2013-02-14 17:02:00,46.4,45.1,30.53,SE,134,0.0,0.0,95,0.00,CLR,OVC,0.10,WeatherDisplay:10.37,2013-02-15 01:02:00,
2013-02-14 17:07:00,46.4,45.0,30.53,SE,134,0.0,0.0,95,0.00,CLR,OVC,0.10,WeatherDisplay:10.37,2013-02-15 01:07:00,
2013-02-14 17:12:00,46.2,44.8,30.53,SE,134,0.0,0.0,95,0.00,CLR,OVC,0.10,WeatherDisplay:10.37,2013-02-15 01:12:00,
2013-02-14 17:17:00,45.9,44.3,30.53,SE,134,0.0,0.0,94,0.00,CLR,OVC,0.10,WeatherDisplay:10.37,2013-02-15 01:17:00,
2013-02-14 17:22:00,45.7,44.1,30.53,SE,134,0.0,0.0,94,0.00,CLR,OVC,0.10,WeatherDisplay:10.37,2013-02-15 01:22:00,
2013-02-14 17:27:00,45.6,44.3,30.53,SE,134,0.0,0.0,95,0.00,CLR,OVC,0.10,WeatherDisplay:10.37,2013-02-15 01:27:00,
2013-02-14 17:32:00,45.5,44.2,30.53,SE,134,0.0,0.0,95,0.00,CLR,OVC,0.10,WeatherDisplay:10.37,2013-02-15 01:32:00,
2013-02-14 17:37:00,45.4,44.1,30.53,SE,134,0.0,0.0,95,0.00,CLR,OVC,0.10,WeatherDisplay:10.37,2013-02-15 01:37:00,
2013-02-14 17:42:00,45.4,44.1,30.52,SE,134,0.0,0.0,95,0.00,CLR,OVC,0.10,WeatherDisplay:10.37,2013-02-15 01:42:00,
2013-02-14 17:47:00,45.2,43.9,30.53,SE,134,0.0,0.0,95,0.00,CLR,OVC,0.10,WeatherDisplay:10.37,2013-02-15 01:47:00,
2013-02-14 17:52:00,45.2,43.9,30.53,SE,134,0.0,0.0,95,0.00,CLR,OVC,0.10,WeatherDisplay:10.37,2013-02-15 01:52:00,
2013-02-14 17:57:00,45.1,43.8,30.53,SE,134,0.0,0.0,95,0.00,CLR,OVC,0.10,WeatherDisplay:10.37,2013-02-15 01:57:00,
2013-02-14 18:02:00,44.9,43.6,30.53,SE,134,0.0,0.0,95,0.00,,OVC,0.10,WeatherDisplay:10.37,2013-02-15 02:02:00,
2013-02-14 18:07:00,44.8,43.4,30.53,SE,134,0.0,0.0,95,0.00,,OVC,0.10,WeatherDisplay:10.37,2013-02-15 02:07:00,
2013-02-14 18:12:00,44.6,43.3,30.53,SE,134,0.0,0.0,95,0.00,,OVC,0.10,WeatherDisplay:10.37,2013-02-15 02:12:00,
2013-02-14 18:17:00,44.4,43.1,30.53,SE,143,0.0,0.0,95,0.00,,OVC,0.10,WeatherDisplay:10.37,2013-02-15 02:17:00,
2013-02-14 18:22:00,44.3,43.2,30.53,South,170,0.0,0.0,96,0.00,,OVC,0.10,WeatherDisplay:10.37,2013-02-15 02:22:00,
2013-02-14 18:27:00,44.2,43.1,30.53,South,184,0.0,0.0,96,0.00,,OVC,0.10,WeatherDisplay:10.37,2013-02-15 02:27:00,
2013-02-14 18:32:00,44.1,43.0,30.53,South,184,0.0,0.0,96,0.00,,OVC,0.10,WeatherDisplay:10.37,2013-02-15 02:32:00,
2013-02-14 18:37:00,44.0,42.9,30.54,South,184,0.0,0.0,96,0.00,,OVC,0.10,WeatherDisplay:10.37,2013-02-15 02:37:00,
2013-02-14 18:42:00,44.0,42.9,30.54,South,184,0.0,0.0,96,0.00,,OVC,0.10,WeatherDisplay:10.37,2013-02-15 02:42:00,
2013-02-14 18:47:00,44.0,42.9,30.54,South,184,0.0,0.0,96,0.00,,OVC,0.10,WeatherDisplay:10.37,2013-02-15 02:47:00,
2013-02-14 18:52:00,44.0,43.2,30.54,South,184,0.0,0.0,97,0.00,,OVC,0.10,WeatherDisplay:10.37,2013-02-15 02:52:00,
2013-02-14 18:57:00,43.9,43.1,30.54,South,184,0.0,0.0,97,0.00,,OVC,0.10,WeatherDisplay:10.37,2013-02-15 02:57:00,
2013-02-14 19:02:00,43.9,43.1,30.54,South,184,0.0,0.0,97,0.00,,OVC,0.10,WeatherDisplay:10.37,2013-02-15 03:02:00,
2013-02-14 19:07:00,43.9,43.1,30.54,South,184,0.0,0.0,97,0.00,,OVC,0.10,WeatherDisplay:10.37,2013-02-15 03:07:00,
2013-02-14 19:12:00,43.9,43.1,30.54,South,184,0.0,0.0,97,0.00,,OVC,0.10,WeatherDisplay:10.37,2013-02-15 03:12:00,
2013-02-14 19:17:00,43.9,43.1,30.54,South,184,0.0,0.0,97,0.00,,OVC,0.10,WeatherDisplay:10.37,2013-02-15 03:17:00,
2013-02-14 19:22:00,43.8,43.0,30.54,SSE,163,0.0,0.0,97,0.00,,OVC,0.10,WeatherDisplay:10.37,2013-02-15 03:22:00,
2013-02-14 19:27:00,43.8,43.0,30.54,NE,51,0.0,0.0,97,0.00,,OVC,0.10,WeatherDisplay:10.37,2013-02-15 03:27:00,
2013-02-14 19:32:00,43.8,43.0,30.54,NE,36,0.0,0.0,97,0.00,,OVC,0.10,WeatherDisplay:10.37,2013-02-15 03:32:00,
2013-02-14 19:37:00,43.8,43.0,30.54,North,359,1.0,0.0,97,0.00,,OVC,0.10,WeatherDisplay:10.37,2013-02-15 03:37:00,
2013-02-14 19:42:00,43.8,43.0,30.54,North,358,1.0,0.0,97,0.00,,OVC,0.10,WeatherDisplay:10.37,2013-02-15 03:42:00,
2013-02-14 19:47:00,43.7,42.9,30.54,North,2,1.0,0.0,97,0.00,,OVC,0.10,WeatherDisplay:10.37,2013-02-15 03:47:00,
2013-02-14 19:52:00,43.7,42.9,30.54,North,5,1.0,0.0,97,0.00,,OVC,0.10,WeatherDisplay:10.37,2013-02-15 03:52:00,
2013-02-14 19:57:00,43.7,42.9,30.55,North,11,1.0,0.0,97,0.00,,OVC,0.10,WeatherDisplay:10.37,2013-02-15 03:57:00,
2013-02-14 20:02:00,43.7,42.9,30.55,North,9,1.0,0.0,97,0.00,,OVC,0.10,WeatherDisplay:10.37,2013-02-15 04:02:00,
2013-02-14 20:07:00,43.6,42.8,30.54,NNE,30,1.0,0.0,97,0.00,,OVC,0.10,WeatherDisplay:10.37,2013-02-15 04:07:00,
2013-02-14 20:12:00,43.6,43.1,30.55,NE,45,1.0,0.0,98,0.00,,OVC,0.10,WeatherDisplay:10.37,2013-02-15 04:12:00,
2013-02-14 20:17:00,43.6,43.1,30.55,NE,38,1.0,0.0,98,0.00,,OVC,0.10,WeatherDisplay:10.37,2013-02-15 04:17:00,
2013-02-14 20:22:00,43.6,43.1,30.55,NNE,33,0.0,0.0,98,0.00,,OVC,0.10,WeatherDisplay:10.37,2013-02-15 04:22:00,
2013-02-14 20:27:00,43.6,43.1,30.54,NNE,33,0.0,0.0,98,0.00,,OVC,0.10,WeatherDisplay:10.37,2013-02-15 04:27:00,
2013-02-14 20:32:00,43.6,43.1,30.54,NE,49,0.0,0.0,98,0.00,,OVC,0.10,WeatherDisplay:10.37,2013-02-15 04:32:00,
2013-02-14 20:37:00,43.5,43.0,30.54,NE,55,0.0,0.0,98,0.00,,OVC,0.10,WeatherDisplay:10.37,2013-02-15 04:37:00,
2013-02-14 20:42:00,43.5,43.0,30.54,ENE,57,0.0,0.0,98,0.00,,OVC,0.10,WeatherDisplay:10.37,2013-02-15 04:42:00,
2013-02-14 20:47:00,43.5,43.0,30.54,ENE,57,0.0,0.0,98,0.00,,OVC,0.10,WeatherDisplay:10.37,2013-02-15 04:47:00,
2013-02-14 20:52:00,43.5,42.9,30.54,ENE,57,0.0,0.0,98,0.00,,OVC,0.10,WeatherDisplay:10.37,2013-02-15 04:52:00,
2013-02-14 20:57:00,43.4,42.9,30.54,ENE,57,0.0,0.0,98,0.00,,OVC,0.10,WeatherDisplay:10.37,2013-02-15 04:57:00,
2013-02-14 21:02:00,43.4,42.9,30.54,ENE,57,0.0,0.0,98,0.00,,OVC,0.10,WeatherDisplay:10.37,2013-02-15 05:02:00,
2013-02-14 21:07:00,43.4,42.9,30.54,ENE,57,0.0,0.0,98,0.00,,OVC,0.10,WeatherDisplay:10.37,2013-02-15 05:07:00,
2013-02-14 21:12:00,43.4,42.9,30.54,ENE,57,0.0,0.0,98,0.00,,OVC,0.10,WeatherDisplay:10.37,2013-02-15 05:12:00,
2013-02-14 21:17:00,43.4,42.8,30.54,ENE,57,0.0,0.0,98,0.00,,OVC,0.10,WeatherDisplay:10.37,2013-02-15 05:17:00,
2013-02-14 21:22:00,43.3,42.8,30.54,ENE,57,0.0,0.0,98,0.00,,OVC,0.10,WeatherDisplay:10.37,2013-02-15 05:22:00,
2013-02-14 21:27:00,43.3,42.8,30.54,ENE,57,0.0,0.0,98,0.00,,OVC,0.10,WeatherDisplay:10.37,2013-02-15 05:27:00,
2013-02-14 21:32:00,43.3,42.7,30.54,ENE,57,0.0,0.0,98,0.00,,OVC,0.10,WeatherDisplay:10.37,2013-02-15 05:32:00,
2013-02-14 21:37:00,43.2,42.7,30.54,ENE,57,0.0,0.0,98,0.00,,OVC,0.10,WeatherDisplay:10.37,2013-02-15 05:37:00,
2013-02-14 21:42:00,43.1,42.6,30.54,ENE,57,0.0,0.0,98,0.00,,OVC,0.10,WeatherDisplay:10.37,2013-02-15 05:42:00,
2013-02-14 21:47:00,43.1,42.6,30.54,ENE,57,1.0,0.0,98,0.00,,OVC,0.10,WeatherDisplay:10.37,2013-02-15 05:47:00,
2013-02-14 21:52:00,43.0,42.5,30.54,ENE,57,1.0,0.0,98,0.00,,OVC,0.10,WeatherDisplay:10.37,2013-02-15 05:52:00,
2013-02-14 21:57:00,43.0,42.5,30.54,ENE,57,1.0,0.0,98,0.00,,OVC,0.10,WeatherDisplay:10.37,2013-02-15 05:57:00,
2013-02-14 22:02:00,42.9,42.4,30.54,ENE,58,1.0,0.0,98,0.00,,OVC,0.10,WeatherDisplay:10.37,2013-02-15 06:02:00,
2013-02-14 22:07:00,42.9,42.4,30.54,ENE,62,0.0,0.0,98,0.00,,OVC,0.10,WeatherDisplay:10.37,2013-02-15 06:07:00,
2013-02-14 22:12:00,42.8,42.3,30.54,ENE,64,0.0,0.0,98,0.00,,OVC,0.10,WeatherDisplay:10.37,2013-02-15 06:12:00,
2013-02-14 22:17:00,42.8,42.3,30.54,ENE,64,0.0,0.0,98,0.00,,OVC,0.10,WeatherDisplay:10.37,2013-02-15 06:17:00,
2013-02-14 22:22:00,42.7,42.2,30.53,ENE,64,0.0,0.0,98,0.00,,OVC,0.10,WeatherDisplay:10.37,2013-02-15 06:22:00,
2013-02-14 22:27:00,42.6,42.1,30.53,ENE,64,0.0,0.0,98,0.00,,OVC,0.10,WeatherDisplay:10.37,2013-02-15 06:27:00,
2013-02-14 22:32:00,42.4,41.9,30.53,ENE,64,0.0,0.0,98,0.00,,OVC,0.10,WeatherDisplay:10.37,2013-02-15 06:32:00,
2013-02-14 22:42:00,42.0,41.2,30.53,ENE,64,0.0,0.0,97,0.00,,OVC,0.10,WeatherDisplay:10.37,2013-02-15 06:42:00,
2013-02-14 22:47:00,41.8,41.0,30.53,ENE,64,0.0,0.0,97,0.00,,OVC,0.10,WeatherDisplay:10.37,2013-02-15 06:47:00,
2013-02-14 22:52:00,41.6,40.8,30.53,ENE,64,0.0,0.0,97,0.00,,OVC,0.10,WeatherDisplay:10.37,2013-02-15 06:52:00,
2013-02-14 22:57:00,41.4,40.6,30.53,ENE,64,0.0,0.0,97,0.00,,OVC,0.10,WeatherDisplay:10.37,2013-02-15 06:57:00,
2013-02-14 23:02:00,41.2,40.4,30.53,ENE,64,0.0,0.0,97,0.00,,OVC,0.10,WeatherDisplay:10.37,2013-02-15 07:02:00,
2013-02-14 23:07:00,41.0,40.2,30.53,ENE,64,0.0,0.0,97,0.00,,OVC,0.10,WeatherDisplay:10.37,2013-02-15 07:07:00,
2013-02-14 23:12:00,40.8,40.0,30.54,ENE,60,0.0,0.0,97,0.00,,OVC,0.10,WeatherDisplay:10.37,2013-02-15 07:12:00,
2013-02-14 23:17:00,40.7,39.9,30.54,NE,43,0.0,0.0,97,0.00,,OVC,0.10,WeatherDisplay:10.37,2013-02-15 07:17:00,
2013-02-14 23:22:00,40.5,39.7,30.54,NNE,20,0.0,0.0,97,0.00,,OVC,0.10,WeatherDisplay:10.37,2013-02-15 07:22:00,
2013-02-14 23:27:00,40.3,39.6,30.54,North,5,0.0,0.0,97,0.00,,OVC,0.10,WeatherDisplay:10.37,2013-02-15 07:27:00,
2013-02-14 23:32:00,40.2,39.4,30.54,North,5,0.0,0.0,97,0.00,,OVC,0.10,WeatherDisplay:10.37,2013-02-15 07:32:00,
2013-02-14 23:37:00,40.1,39.3,30.53,North,5,0.0,0.0,97,0.00,,OVC,0.10,WeatherDisplay:10.37,2013-02-15 07:37:00,
2013-02-14 23:42:00,40.0,39.2,30.53,North,357,1.0,0.0,97,0.00,,OVC,0.10,WeatherDisplay:10.37,2013-02-15 07:42:00,
2013-02-14 23:47:00,39.9,39.1,30.53,North,353,1.0,0.0,97,0.00,,OVC,0.10,WeatherDisplay:10.37,2013-02-15 07:47:00,
2013-02-14 23:52:00,39.8,39.0,30.53,North,353,0.0,0.0,97,0.00,,OVC,0.10,WeatherDisplay:10.37,2013-02-15 07:52:00,
2013-02-14 23:57:00,39.7,38.9,30.53,North,355,0.0,0.0,97,0.00,,OVC,0.10,WeatherDisplay:10.37,2013-02-15 07:57:00,